GW5607 Weather Reports


time (UTC)temp
C
wind
direction
speed
KPH
gust
KPH
rain 1hr
cm
rain 24hr
cm
rain mn
cm
humidity
%
barometer
mb
20260505153215 16 175 0.0 0.0 0.00 1.12 1.12 94 1009.2
20260505152712 16 171 0.0 0.0 0.00 1.12 1.12 94 1009.1
20260505152208 16 165 0.0 0.0 0.00 1.12 1.12 94 1009.2
20260505151703 16 177 0.0 0.0 0.00 1.12 1.12 94 1009.2
20260505151200 16 165 0.0 0.0 0.00 1.12 1.12 95 1009.1
20260505150656 15 155 0.0 1.6 0.00 1.12 1.12 95 1008.8
20260505150154 15 175 0.0 0.0 0.00 1.12 1.12 95 1009.1
20260505140622 15 126 1.6 3.2 0.30 1.04 1.04 94 1008.3
20260505140119 15 90 4.8 6.4 0.30 1.02 1.02 94 1008.4
20260505125036 16 179 0.0 0.0 0.00 0.00 0.00 81 1009.0
20260505124532 16 178 0.0 0.0 0.00 0.00 0.00 79 1009.0
20260505124028 16 180 0.0 0.0 0.00 0.00 0.00 76 1008.8
20260505123525 17 179 1.6 1.6 0.00 0.00 0.00 74 1008.6
20260505123021 17 166 0.0 0.0 0.00 0.00 0.00 73 1008.7
20260505122519 17 148 3.2 4.8 0.00 0.00 0.00 72 1008.4
20260505122015 17 174 0.0 0.0 0.00 0.00 0.00 72 1008.5
20260505121512 17 175 1.6 1.6 0.00 0.00 0.00 71 1008.3
20260505121009 17 110 0.0 1.6 0.00 0.00 0.00 71 1008.2
20260505120505 17 170 1.6 3.2 0.00 0.00 0.00 71 1008.2
20260505120005 17 164 0.0 0.0 0.00 0.00 0.00 71 1008.3
20260505115500 17 156 1.6 1.6 0.00 0.00 0.00 71 1008.1
20260505114958 17 175 0.0 1.6 0.00 0.00 0.00 70 1007.9
20260505114454 17 165 0.0 1.6 0.00 0.00 0.00 70 1007.7
20260505113951 17 125 1.6 1.6 0.00 0.00 0.00 70 1007.8
20260505113447 17 172 1.6 3.2 0.00 0.00 0.00 70 1007.6
20260505112943 17 170 0.0 1.6 0.00 0.00 0.00 70 1007.7
20260505112441 17 172 0.0 0.0 0.00 0.00 0.00 69 1007.5
20260505111938 17 166 3.2 4.8 0.00 0.00 0.00 70 1007.5
20260505111437 17 160 1.6 1.6 0.00 0.00 0.00 69 1007.5
20260505110934 17 164 1.6 1.6 0.00 0.00 0.00 69 1007.6
20260505110431 17 173 0.0 0.0 0.00 0.00 0.00 69 1007.6
20260505101902 17 166 1.6 3.2 0.00 0.00 0.00 67 1007.5
20260505101357 17 164 0.0 0.0 0.00 0.00 0.00 67 1007.7
20260505100853 17 171 0.0 0.0 0.00 0.00 0.00 68 1007.6
20260505100349 17 162 0.0 0.0 0.00 0.00 0.00 68 1007.5
20260505095845 17 176 0.0 0.0 0.00 0.00 0.00 68 1007.8
20260505095343 17 170 0.0 0.0 0.00 0.00 0.00 67 1007.7
20260505094839 17 170 0.0 0.0 0.00 0.00 0.00 68 1007.8
20260505094336 17 170 0.0 0.0 0.00 0.00 0.00 67 1007.7
20260505093831 17 165 0.0 0.0 0.00 0.00 0.00 67 1008.1
20260505093329 17 179 0.0 0.0 0.00 0.00 0.00 67 1007.8
20260505092826 17 178 0.0 0.0 0.00 0.00 0.00 66 1008.0
20260505092324 17 180 0.0 0.0 0.00 0.00 0.00 66 1008.1
20260505091821 17 177 0.0 0.0 0.00 0.00 0.00 67 1008.1
20260505091319 17 175 0.0 0.0 0.00 0.00 0.00 66 1008.0
20260505090817 17 175 0.0 0.0 0.00 0.00 0.00 66 1007.9
20260505090315 17 170 0.0 0.0 0.00 0.00 0.00 66 1007.7
20260505085812 17 173 0.0 0.0 0.00 0.00 0.00 66 1007.8
20260505085310 17 169 0.0 0.0 0.00 0.00 0.00 66 1007.7
20260505084807 17 187 0.0 0.0 0.00 0.00 0.00 66 1007.7
20260505084306 17 176 0.0 0.0 0.00 0.00 0.00 66 1007.6
20260505083802 17 179 0.0 0.0 0.00 0.00 0.00 65 1007.8
20260505083259 17 173 0.0 0.0 0.00 0.00 0.00 65 1007.7
20260505082756 17 183 0.0 0.0 0.00 0.00 0.00 65 1007.7
20260505082253 17 184 0.0 0.0 0.00 0.00 0.00 65 1007.6
20260505081748 17 176 0.0 0.0 0.00 0.00 0.00 65 1007.8
20260505081246 17 170 0.0 0.0 0.00 0.00 0.00 65 1007.7
20260505080743 17 171 0.0 0.0 0.00 0.00 0.00 65 1007.7
20260505080238 17 168 0.0 0.0 0.00 0.00 0.00 64 1007.4
20260505075734 17 170 0.0 0.0 0.00 0.00 0.00 64 1007.7
20260505075232 17 170 0.0 0.0 0.00 0.00 0.00 64 1007.7
20260505074729 17 168 0.0 0.0 0.00 0.00 0.00 64 1007.6
20260505074226 17 177 0.0 0.0 0.00 0.00 0.00 63 1007.7
20260505073723 17 187 0.0 0.0 0.00 0.00 0.00 63 1007.7
20260505073221 17 192 0.0 0.0 0.00 0.00 0.00 63 1007.6
20260505072717 17 174 0.0 0.0 0.00 0.00 0.00 63 1007.4
20260505072213 17 195 1.6 1.6 0.00 0.00 0.00 63 1007.5
20260505071709 17 179 0.0 0.0 0.00 0.00 0.00 63 1007.6
20260505071207 17 166 3.2 3.2 0.00 0.00 0.00 63 1007.6
20260505070704 17 182 0.0 1.6 0.00 0.00 0.00 63 1007.5
20260505070200 17 192 0.0 1.6 0.00 0.00 0.00 63 1007.5
20260505065656 17 208 1.6 3.2 0.00 0.00 0.00 63 1007.5
20260505065153 17 168 0.0 0.0 0.00 0.00 0.00 63 1007.7
20260505064650 17 226 3.2 4.8 0.00 0.00 0.00 62 1008.0
20260505064148 18 174 0.0 1.6 0.00 0.00 0.00 62 1007.8
20260505063645 18 157 1.6 1.6 0.00 0.00 0.00 62 1008.2
20260505063141 18 178 0.0 0.0 0.00 0.00 0.00 62 1008.3
20260505062637 18 188 1.6 1.6 0.00 0.00 0.00 62 1008.5
20260505062135 18 177 1.6 1.6 0.00 0.00 0.00 62 1008.6
20260505061632 18 172 0.0 0.0 0.00 0.00 0.00 62 1008.5
20260505061130 18 172 0.0 0.0 0.00 0.00 0.00 62 1008.5
20260505060627 18 177 0.0 0.0 0.00 0.00 0.00 61 1008.5
20260505060124 18 172 0.0 0.0 0.00 0.00 0.00 61 1008.5
20260505055619 18 172 1.6 1.6 0.00 0.00 0.00 61 1008.8
20260505055116 18 171 1.6 3.2 0.00 0.00 0.00 61 1008.7
20260505054613 18 174 0.0 1.6 0.00 0.00 0.00 61 1008.7
20260505054112 18 174 1.6 1.6 0.00 0.00 0.00 61 1008.6
20260505053608 18 172 0.0 0.0 0.00 0.00 0.00 60 1008.7
20260505053105 18 176 0.0 0.0 0.00 0.00 0.00 61 1008.8
20260505052602 18 168 0.0 1.6 0.00 0.00 0.00 60 1008.7
20260505052059 18 179 0.0 1.6 0.00 0.00 0.00 60 1008.9
20260505051556 18 176 1.6 1.6 0.00 0.00 0.00 60 1008.8
20260505051054 18 163 1.6 3.2 0.00 0.00 0.00 59 1009.1
20260505050552 18 188 0.0 0.0 0.00 0.00 0.00 60 1008.9
20260505041520 18 176 1.6 1.6 0.00 0.00 0.00 58 1009.2
20260505041017 18 173 0.0 0.0 0.00 0.00 0.00 58 1009.0
20260505040514 18 184 0.0 0.0 0.00 0.00 0.00 58 1009.0
20260505040012 18 178 0.0 0.0 0.00 0.00 0.00 59 1009.2
20260505035507 18 177 0.0 0.0 0.00 0.00 0.00 58 1009.1
20260505035004 18 172 0.0 0.0 0.00 0.00 0.00 58 1009.3
20260505034501 18 171 0.0 0.0 0.00 0.00 0.00 58 1009.1
20260505033958 19 171 0.0 0.0 0.00 0.00 0.00 57 1009.2
20260505033455 19 173 0.0 0.0 0.00 0.00 0.00 56 1009.1
20260505032953 19 173 0.0 0.0 0.00 0.00 0.00 56 1008.9
20260505032450 20 174 0.0 0.0 0.00 0.00 0.00 55 1009.1
20260505031946 20 169 0.0 0.0 0.00 0.00 0.00 55 1008.9
20260505031443 20 175 0.0 0.0 0.00 0.00 0.00 55 1008.8
20260505030940 20 173 0.0 0.0 0.00 0.00 0.00 54 1008.9
20260505030436 20 173 0.0 0.0 0.00 0.00 0.00 54 1008.9
20260505025931 20 176 0.0 0.0 0.00 0.00 0.00 53 1008.6
20260505025429 20 170 0.0 1.6 0.00 0.00 0.00 53 1008.8
20260505024928 20 176 0.0 0.0 0.00 0.00 0.00 52 1008.5
20260505024425 20 185 0.0 1.6 0.00 0.00 0.00 52 1008.7
20260505023922 20 185 0.0 0.0 0.00 0.00 0.00 52 1008.4
20260505023419 20 182 0.0 0.0 0.00 0.00 0.00 52 1008.4
20260505022916 20 179 0.0 0.0 0.00 0.00 0.00 52 1008.3
20260505022414 20 177 0.0 0.0 0.00 0.00 0.00 52 1008.4
20260505021910 20 180 0.0 0.0 0.00 0.00 0.00 52 1008.2
20260505021407 21 176 0.0 0.0 0.00 0.00 0.00 51 1008.3
20260505020903 21 174 0.0 0.0 0.00 0.00 0.00 51 1008.2
20260505020358 21 170 0.0 0.0 0.00 0.00 0.00 51 1008.1
20260505015855 21 176 0.0 0.0 0.00 0.00 0.00 51 1008.1
20260505015352 21 175 0.0 0.0 0.00 0.00 0.00 51 1008.1
20260505014850 21 179 0.0 0.0 0.00 0.00 0.00 51 1008.1
20260505014347 21 181 0.0 0.0 0.00 0.00 0.00 51 1008.0
20260505013843 21 173 0.0 0.0 0.00 0.00 0.00 51 1007.9
20260505013340 21 183 0.0 0.0 0.00 0.00 0.00 50 1007.8
20260505012839 21 179 0.0 0.0 0.00 0.00 0.00 49 1008.0
20260505012336 21 177 0.0 0.0 0.00 0.00 0.00 49 1007.8
20260505011832 21 177 0.0 0.0 0.00 0.00 0.00 48 1007.8
20260505011329 21 173 0.0 0.0 0.00 0.00 0.00 48 1007.7
20260505010825 22 175 0.0 0.0 0.00 0.00 0.00 48 1007.7
20260505010321 22 171 0.0 0.0 0.00 0.00 0.00 47 1007.6
20260505005817 22 175 0.0 0.0 0.00 0.00 0.00 47 1007.6
20260505005315 22 188 0.0 1.6 0.00 0.00 0.00 46 1007.4
20260505004812 22 172 0.0 0.0 0.00 0.00 0.00 46 1007.7
20260505004308 22 170 0.0 0.0 0.00 0.00 0.00 45 1007.4
20260505003806 22 171 0.0 0.0 0.00 0.00 0.00 46 1007.7
20260505003303 22 180 1.6 1.6 0.00 0.00 0.00 45 1007.7
20260505002759 23 173 0.0 1.6 0.00 0.00 0.00 45 1007.7
20260505002256 23 181 0.0 1.6 0.00 0.00 0.00 44 1007.7
20260505001754 23 174 0.0 0.0 0.00 0.00 0.00 45 1007.8
20260505001251 23 184 1.6 3.2 0.00 0.00 0.00 43 1007.4
20260505000748 23 171 0.0 0.0 0.00 0.00 0.00 43 1007.7
20260505000246 23 182 0.0 0.0 0.00 0.00 0.00 43 1007.6
20260504235742 24 191 1.6 1.6 0.00 0.00 0.00 41 1007.6
20260504235238 24 173 1.6 3.2 0.00 0.00 0.00 41 1007.8
20260504234736 24 179 1.6 1.6 0.00 0.00 0.00 41 1007.7
20260504234233 25 172 3.2 4.8 0.00 0.00 0.00 41 1007.9
20260504233729 25 179 1.6 1.6 0.00 0.00 0.00 40 1007.8
20260504233225 25 176 3.2 4.8 0.00 0.00 0.00 40 1008.0
20260504232723 25 184 4.8 6.4 0.00 0.00 0.00 39 1008.1
20260504232219 25 169 0.0 0.0 0.00 0.00 0.00 41 1008.0
20260504231716 25 170 3.2 3.2 0.00 0.00 0.00 39 1008.0
20260504231213 25 94 3.2 6.4 0.00 0.00 0.00 39 1008.0
20260504230708 25 208 1.6 3.2 0.00 0.00 0.00 39 1008.1
20260504230208 25 212 3.2 4.8 0.00 0.00 0.00 38 1008.2
20260504225706 25 179 1.6 3.2 0.00 0.00 0.00 39 1008.2
20260504225201 26 214 3.2 3.2 0.00 0.00 0.00 38 1008.4
20260504224659 26 188 1.6 3.2 0.00 0.00 0.00 38 1008.2
20260504224156 26 158 1.6 3.2 0.00 0.00 0.00 38 1008.5
20260504223653 26 175 0.0 1.6 0.00 0.00 0.00 38 1008.4
20260504223148 26 183 3.2 4.8 0.00 0.00 0.00 38 1008.4
20260504222645 26 183 3.2 4.8 0.00 0.00 0.00 38 1008.4
20260504222142 26 229 6.4 6.4 0.00 0.00 0.00 38 1008.3
20260504221640 26 86 3.2 3.2 0.00 0.00 0.00 37 1008.1
20260504221136 26 237 8.0 11.3 0.00 0.00 0.00 37 1008.2
20260504220632 26 218 8.0 9.7 0.00 0.00 0.00 36 1008.2
20260504220131 26 191 0.0 1.6 0.00 0.00 0.00 37 1008.1
20260504215626 26 181 3.2 3.2 0.00 0.00 0.00 36 1008.1
20260504215124 26 212 3.2 4.8 0.00 0.00 0.00 36 1008.1
20260504214620 26 179 1.6 1.6 0.00 0.00 0.00 35 1008.2
20260504214116 27 215 3.2 3.2 0.00 0.00 0.00 35 1008.1
20260504213613 27 159 3.2 3.2 0.00 0.00 0.00 35 1008.1
20260504213110 27 185 3.2 4.8 0.00 0.00 0.00 35 1008.1
20260504212606 27 215 8.0 9.7 0.00 0.00 0.00 34 1008.3
20260504212103 27 163 3.2 4.8 0.00 0.00 0.00 34 1008.1
20260504211600 27 178 4.8 4.8 0.00 0.00 0.00 35 1008.2
20260504211057 27 259 8.0 9.7 0.00 0.00 0.00 34 1008.1
20260504210554 27 144 12.9 17.7 0.00 0.00 0.00 34 1007.9
20260504210050 27 190 3.2 4.8 0.00 0.00 0.00 35 1008.2
20260504205548 27 155 3.2 3.2 0.00 0.00 0.00 35 1008.2
20260504205046 27 150 4.8 4.8 0.00 0.00 0.00 36 1008.4
20260504204544 28 179 1.6 1.6 0.00 0.00 0.00 35 1008.2
20260504204043 27 171 1.6 3.2 0.00 0.00 0.00 38 1008.2
20260504203540 27 153 4.8 6.4 0.00 0.00 0.00 36 1008.4
20260504203038 27 227 4.8 9.7 0.00 0.00 0.00 37 1008.4
20260504202533 27 155 3.2 4.8 0.00 0.00 0.00 35 1008.5
20260504202030 27 186 3.2 4.8 0.00 0.00 0.00 35 1008.5
20260504201527 27 242 3.2 3.2 0.00 0.00 0.00 35 1008.9
20260504201025 27 154 4.8 6.4 0.00 0.00 0.00 35 1008.7
20260504200521 27 35 9.7 16.1 0.00 0.00 0.00 34 1008.8
20260504200018 27 227 4.8 6.4 0.00 0.00 0.00 34 1008.8
20260504195514 27 156 3.2 4.8 0.00 0.00 0.00 34 1008.9
20260504195011 27 223 4.8 4.8 0.00 0.00 0.00 34 1009.0
20260504194507 27 202 4.8 9.7 0.00 0.00 0.00 35 1008.8
20260504194002 27 158 3.2 3.2 0.00 0.00 0.00 36 1009.3
20260504193500 27 167 4.8 6.4 0.00 0.00 0.00 36 1009.3
20260504192959 27 215 3.2 4.8 0.00 0.00 0.00 37 1009.2
20260504192456 27 188 6.4 9.7 0.00 0.00 0.00 35 1009.1
20260504191954 27 225 9.7 12.9 0.00 0.00 0.00 33 1009.2
20260504191452 27 170 3.2 4.8 0.00 0.00 0.00 37 1009.4
20260504190947 27 219 6.4 6.4 0.00 0.00 0.00 36 1009.3
20260504190443 27 189 3.2 3.2 0.00 0.00 0.00 37 1009.5
20260504185940 27 219 3.2 4.8 0.00 0.00 0.00 36 1009.5
20260504185437 27 200 3.2 6.4 0.00 0.00 0.00 36 1009.5
20260504184933 27 222 9.7 11.3 0.00 0.00 0.00 37 1009.5
20260504184429 27 229 11.3 14.5 0.00 0.00 0.00 38 1009.4
20260504183925 27 218 3.2 4.8 0.00 0.00 0.00 36 1009.5
20260504183422 27 224 3.2 3.2 0.00 0.00 0.00 39 1009.7
20260504182920 26 198 6.4 6.4 0.00 0.00 0.00 38 1009.7
20260504182417 27 220 4.8 6.4 0.00 0.00 0.00 37 1009.6
20260504181914 26 179 1.6 1.6 0.00 0.00 0.00 38 1009.7
20260504181411 26 318 3.2 4.8 0.00 0.00 0.00 38 1009.8
20260504180910 26 199 3.2 4.8 0.00 0.00 0.00 37 1010.1
20260504180408 27 217 4.8 4.8 0.00 0.00 0.00 40 1010.1
20260504175906 26 203 3.2 3.2 0.00 0.00 0.00 39 1009.9
20260504175402 26 219 9.7 11.3 0.00 0.00 0.00 37 1010.2
20260504174900 26 208 4.8 6.4 0.00 0.00 0.00 40 1010.1
20260504174358 26 212 6.4 9.7 0.00 0.00 0.00 40 1010.1
20260504173855 26 225 6.4 6.4 0.00 0.00 0.00 40 1010.2
20260504173351 26 217 9.7 11.3 0.00 0.00 0.00 38 1010.3
20260504172849 26 133 1.6 3.2 0.00 0.00 0.00 38 1010.5
20260504172345 26 208 4.8 4.8 0.00 0.00 0.00 39 1010.6
20260504171841 26 224 4.8 6.4 0.00 0.00 0.00 40 1010.5
20260504171338 26 204 3.2 3.2 0.00 0.00 0.00 41 1010.6
20260504170835 25 191 6.4 6.4 0.00 0.00 0.00 43 1010.7
20260504170332 25 239 6.4 9.7 0.00 0.00 0.00 42 1010.9
20260504160250 25 201 3.2 4.8 0.00 0.00 0.00 45 1011.3